GNOMES-2 (48910 NORAD) Tracking and Keplerian Element Data

This shows tracking and keplerian element data for the satellite.

Feedback or suggestion? Click here.




ElementValue
Catalog48910
NameGNOMES-2
Epoch Orbit1286
Epoch Day261.89955834
Epoch Year2021
RAAN29.5023
Inclination97.524
Eccentricity0.0010665
Argument of Perigee321.6389
Mean Anonmoly38.4082
Mean Motion15.1272579
Decay Rate1.427E-05
L11 48910U 21059AH 21261.89955834 .00001427 00000-0 85117-4 0 9992
L22 48910 97.5240 29.5023 0010665 321.6389 38.4082 15.12725790 12863

Live tracking and technical data element details for GNOMES-2 (NORAD 48910). GNOMES-2 can be tracked NOW for your location showing map with azimuth and elevation plus other details from your city location.

Track the satellite on the map from your city or location and see movement details for azimuth, elevation, latitude, longitude, range, height, and movement on the map or in text.







IsCatalogInMostPopularTable: catalog: 48910, numindb: 14
Update: records affected: 1



GetName: 48910 GNOMES-2

Hit Count: updated at: Fri, 24 Sep 2021 19:07:37 GMT